When you browse on this site, cookies collect data to enhance your experience and personalize the content and advertising you see.
Visit our Privacy Policy to learn more. By continuing to use the site, you agree to this use of cookies and data.
  • In Lithuania
  • List of Countries
  • For 7 days
  • Water Temperature
  • Satellite Maps
  • Weather Map
  • Weather Widgets
  • user-avatar
    Login

    Hourly Weather Kostomarovka

    Today, 20 March, Wednesday

    Time Temperature Precipitation Wind Pressure Humidity
    00:00 +2°C° 0 mm 2 mps 752 mmHg 97%
    01:00 +2°C° 0 mm 2 mps 752 mmHg 97%
    02:00 +2°C° 0 mm 2 mps 752 mmHg 97%
    03:00 +2°C° 0 mm 2 mps 751 mmHg 98%
    04:00 +2°C° 0.1 mm 2 mps 751 mmHg 98%
    05:00 +1°C° 0.1 mm 2 mps 751 mmHg 98%
    06:00 +1°C° 0.1 mm 2 mps 752 mmHg 99%
    07:00 +1°C° 0 mm 2 mps 752 mmHg 99%
    08:00 +1°C° 0 mm 2 mps 752 mmHg 99%
    09:00 +1°C° 0 mm 2 mps 752 mmHg 99%
    10:00 +1°C° 0 mm 2 mps 752 mmHg 99%
    11:00 +2°C° 0 mm 2 mps 752 mmHg 99%
    12:00 +2°C° 0 mm 2 mps 752 mmHg 99%
    13:00 +2°C° 0.2 mm 2 mps 752 mmHg 99%
    14:00 +2°C° 0.2 mm 2 mps 752 mmHg 99%
    15:00 +2°C° 0.2 mm 2 mps 752 mmHg 99%
    16:00 +1°C° 0.1 mm 2 mps 752 mmHg 99%
    17:00 +1°C° 0.1 mm 2 mps 752 mmHg 99%
    18:00 +1°C° 0.1 mm 2 mps 752 mmHg 99%
    19:00 +1°C° 0 mm 2 mps 752 mmHg 99%
    20:00 -1°C° 0 mm 2 mps 753 mmHg 98%
    21:00 -1°C° 0 mm 2 mps 753 mmHg 98%
    22:00 -1°C° 0 mm 2 mps 753 mmHg 97%
    23:00 -1°C° 0 mm 2 mps 753 mmHg 97%

    Tomorrow, 21 March, Thursday

    Time Temperature Precipitation Wind Pressure Humidity
    00:00 -2°C° 0 mm 3 mps 753 mmHg 97%
    01:00 -2°C° 0 mm 2 mps 752 mmHg 95%
    02:00 -2°C° 0 mm 2 mps 752 mmHg 94%
    03:00 -3°C° 0 mm 2 mps 752 mmHg 92%
    04:00 -3°C° 0 mm 2 mps 752 mmHg 92%
    05:00 -3°C° 0 mm 2 mps 751 mmHg 92%
    06:00 -3°C° 0 mm 2 mps 751 mmHg 91%
    07:00 -3°C° 0 mm 2 mps 751 mmHg 90%
    08:00 -2°C° 0 mm 3 mps 751 mmHg 88%
    09:00 -1°C° 0 mm 3 mps 750 mmHg 87%
    10:00 -1°C° 0.1 mm 3 mps 750 mmHg 88%
    11:00 -1°C° 0.1 mm 4 mps 750 mmHg 90%
    12:00 -1°C° 0.1 mm 4 mps 749 mmHg 91%
    13:00 -1°C° 0.2 mm 4 mps 749 mmHg 92%
    14:00 -1°C° 0.2 mm 4 mps 749 mmHg 93%
    15:00 -1°C° 0.2 mm 4 mps 748 mmHg 94%
    16:00 -1°C° 0.1 mm 4 mps 748 mmHg 94%
    17:00 -1°C° 0.1 mm 4 mps 748 mmHg 94%
    18:00 0°C° 0.1 mm 4 mps 748 mmHg 94%
    19:00 -1°C° 0 mm 4 mps 748 mmHg 93%
    20:00 -1°C° 0 mm 4 mps 749 mmHg 91%
    21:00 -1°C° 0 mm 4 mps 749 mmHg 90%
    22:00 -2°C° 0 mm 4 mps 749 mmHg 90%
    23:00 -2°C° 0 mm 4 mps 749 mmHg 90%

    Day after tomorrow, 22 March, Friday

    Time Temperature Precipitation Wind Pressure Humidity
    00:00 -3°C° 0 mm 4 mps 749 mmHg 91%
    01:00 -2°C° 0 mm 3 mps 749 mmHg 91%
    02:00 -2°C° 0 mm 3 mps 749 mmHg 91%
    03:00 -2°C° 0 mm 3 mps 749 mmHg 91%
    04:00 -2°C° 0 mm 3 mps 749 mmHg 90%
    05:00 -2°C° 0 mm 3 mps 749 mmHg 90%
    06:00 -2°C° 0 mm 3 mps 749 mmHg 90%
    07:00 -2°C° 0 mm 3 mps 748 mmHg 90%
    08:00 -1°C° 0 mm 3 mps 748 mmHg 90%
    09:00 0°C° 0 mm 3 mps 748 mmHg 90%
    10:00 0°C° 0 mm 3 mps 747 mmHg 92%
    11:00 +1°C° 0 mm 3 mps 747 mmHg 93%
    12:00 0°C° 0 mm 4 mps 746 mmHg 95%
    13:00 0°C° 0.3 mm 4 mps 745 mmHg 95%
    14:00 0°C° 0.3 mm 5 mps 744 mmHg 95%
    15:00 +1°C° 0.3 mm 5 mps 744 mmHg 96%
    16:00 +1°C° 0.2 mm 5 mps 743 mmHg 96%
    17:00 +1°C° 0.2 mm 5 mps 742 mmHg 97%
    18:00 +1°C° 0.2 mm 6 mps 741 mmHg 97%
    19:00 +1°C° 0.3 mm 6 mps 741 mmHg 95%
    20:00 +1°C° 0.3 mm 6 mps 741 mmHg 93%
    21:00 0°C° 0.3 mm 7 mps 741 mmHg 91%
    22:00 0°C° 0 mm 7 mps 741 mmHg 87%
    23:00 -1°C° 0 mm 7 mps 741 mmHg 83%

    23 March, Saturday

    Time Temperature Precipitation Wind Pressure Humidity
    00:00 -2°C° 0 mm 7 mps 741 mmHg 79%
    01:00 -2°C° 0 mm 7 mps 741 mmHg 80%
    02:00 -2°C° 0 mm 7 mps 742 mmHg 81%
    03:00 -4°C° 0 mm 8 mps 742 mmHg 82%
    04:00 -4°C° 0 mm 8 mps 742 mmHg 81%
    05:00 -4°C° 0 mm 9 mps 742 mmHg 79%
    06:00 -4°C° 0 mm 9 mps 742 mmHg 77%
    07:00 -4°C° 0 mm 9 mps 743 mmHg 79%
    08:00 -4°C° 0 mm 9 mps 744 mmHg 80%
    09:00 -3°C° 0 mm 9 mps 744 mmHg 81%
    10:00 -2°C° 0 mm 8 mps 745 mmHg 82%
    11:00 -2°C° 0 mm 7 mps 745 mmHg 83%
    12:00 -1°C° 0 mm 6 mps 746 mmHg 84%
    13:00 0°C° 0 mm 5 mps 746 mmHg 83%
    14:00 0°C° 0 mm 4 mps 746 mmHg 82%
    15:00 0°C° 0 mm 4 mps 746 mmHg 81%
    16:00 +1°C° 0 mm 3 mps 746 mmHg 83%
    17:00 +1°C° 0 mm 3 mps 746 mmHg 84%
    18:00 +2°C° 0 mm 2 mps 746 mmHg 85%
    19:00 +1°C° 0 mm 2 mps 746 mmHg 86%
    20:00 0°C° 0 mm 3 mps 746 mmHg 87%
    21:00 -1°C° 0 mm 3 mps 746 mmHg 89%
    22:00 -2°C° 0 mm 4 mps 745 mmHg 86%
    23:00 -1°C° 0 mm 4 mps 744 mmHg 84%

    24 March, Sunday

    Time Temperature Precipitation Wind Pressure Humidity
    00:00 -1°C° 0 mm 5 mps 743 mmHg 82%
    01:00 0°C° 0.3 mm 5 mps 743 mmHg 85%
    02:00 -1°C° 0.3 mm 6 mps 742 mmHg 88%
    03:00 -1°C° 0.3 mm 6 mps 741 mmHg 90%
    04:00 +1°C° 0 mm 6 mps 741 mmHg 92%
    05:00 +1°C° 0 mm 6 mps 740 mmHg 93%
    06:00 +1°C° 0 mm 6 mps 740 mmHg 94%
    07:00 +1°C° 0 mm 6 mps 740 mmHg 87%
    08:00 0°C° 0 mm 7 mps 740 mmHg 80%
    09:00 -1°C° 0 mm 8 mps 740 mmHg 73%
    10:00 0°C° 0.1 mm 8 mps 740 mmHg 68%
    11:00 0°C° 0.1 mm 9 mps 740 mmHg 63%
    12:00 +1°C° 0.1 mm 9 mps 740 mmHg 58%
    13:00 +1°C° 0.1 mm 9 mps 740 mmHg 57%
    14:00 +1°C° 0.1 mm 10 mps 740 mmHg 57%
    15:00 +1°C° 0.1 mm 10 mps 740 mmHg 56%
    16:00 0°C° 0 mm 9 mps 740 mmHg 59%
    17:00 0°C° 0 mm 8 mps 740 mmHg 62%
    18:00 -1°C° 0 mm 7 mps 740 mmHg 65%
    19:00 -1°C° 0 mm 7 mps 740 mmHg 66%
    20:00 -2°C° 0 mm 7 mps 740 mmHg 68%
    21:00 -2°C° 0 mm 6 mps 741 mmHg 69%
    22:00 -2°C° 0 mm 7 mps 741 mmHg 68%
    23:00 -3°C° 0 mm 7 mps 741 mmHg 68%

    25 March, Monday

    Time Temperature Precipitation Wind Pressure Humidity
    00:00 -3°C° 0 mm 7 mps 741 mmHg 68%
    01:00 -3°C° 0 mm 7 mps 741 mmHg 68%
    02:00 -3°C° 0 mm 7 mps 741 mmHg 67%
    03:00 -3°C° 0 mm 7 mps 741 mmHg 67%
    04:00 -3°C° 0 mm 7 mps 741 mmHg 66%
    05:00 -4°C° 0 mm 7 mps 741 mmHg 65%
    06:00 -4°C° 0 mm 7 mps 742 mmHg 63%
    07:00 -3°C° 0 mm 7 mps 742 mmHg 61%
    08:00 -3°C° 0 mm 7 mps 742 mmHg 58%
    09:00 -3°C° 0 mm 7 mps 742 mmHg 56%
    10:00 -1°C° 0 mm 6 mps 742 mmHg 52%
    11:00 +1°C° 0 mm 6 mps 742 mmHg 48%
    12:00 +2°C° 0 mm 6 mps 742 mmHg 44%
    13:00 +2°C° 0 mm 6 mps 741 mmHg 43%
    14:00 +3°C° 0 mm 6 mps 741 mmHg 42%
    15:00 +3°C° 0 mm 6 mps 740 mmHg 40%
    16:00 +3°C° 0 mm 5 mps 740 mmHg 46%
    17:00 +3°C° 0 mm 4 mps 739 mmHg 52%
    18:00 +3°C° 0 mm 4 mps 739 mmHg 57%
    19:00 +1°C° 0 mm 4 mps 739 mmHg 61%
    20:00 +1°C° 0 mm 4 mps 739 mmHg 65%
    21:00 0°C° 0 mm 4 mps 738 mmHg 69%
    22:00 0°C° 0 mm 4 mps 738 mmHg 70%
    23:00 0°C° 0 mm 4 mps 738 mmHg 71%
    Show more